Location: Vihti�l�
(61.3833°N, 23.0667°E)
Time: 05:26:21
(UTC+00:00)

CZ-2C R/B - Pass Details

Date: 29 November 2020
Orbit: 668 x 784 km, 98.2° (Epoch: 22 January)

Event Time Altitude Azimuth Distance (km) Brightness Sun altitude
Rises 02:49:43 0° 18° (NNE) 3,054 5.9 -29.1°
Reaches altitude 10° 02:51:59 10° 19° (NNE) 2,126 5.1 -28.8°
Enters shadow 02:55:01 41° 26° (NNE) 979 3.2 -28.5°
